SV1TGC Weather Reports


time (UTC)temp
C
wind
direction
speed
KPH
gust
KPH
rain 1hr
cm
rain 24hr
cm
rain mn
cm
humidity
%
barometer
mb
20260906095535 32 350 11.3 17.7 0.00 0.00 0.00 38 1017.1
20260906095035 32 351 8.0 17.7 0.00 0.00 0.00 38 1017.1
20260906094602 32 351 11.3 17.7 0.00 0.00 0.00 38 1017.2
20260906094035 32 350 9.7 20.9 0.00 0.00 0.00 38 1017.1
20260906093536 32 351 8.0 20.9 0.00 0.00 0.00 39 1017.2
20260906093103 32 351 8.0 20.9 0.00 0.00 0.00 41 1017.2
20260906092535 32 351 11.3 17.7 0.00 0.00 0.00 39 1017.2
20260906092036 32 351 9.7 17.7 0.00 0.00 0.00 42 1017.3
20260906091601 32 351 9.7 17.7 0.00 0.00 0.00 42 1017.3
20260906091035 32 351 9.7 17.7 0.00 0.00 0.00 44 1017.4
20260906090535 32 351 3.2 16.1 0.00 0.00 0.00 41 1017.4
20260906090057 32 350 6.4 16.1 0.00 0.00 0.00 41 1017.6
20260906085538 32 351 6.4 16.1 0.00 0.00 0.00 42 1017.6
20260906085036 31 351 8.0 17.7 0.00 0.00 0.00 39 1017.6
20260906084601 31 350 8.0 17.7 0.00 0.00 0.00 40 1017.6
20260906084036 31 351 8.0 14.5 0.00 0.00 0.00 42 1017.5
20260906083537 31 350 4.8 16.1 0.00 0.00 0.00 39 1017.6
20260906083104 31 350 8.0 16.1 0.00 0.00 0.00 39 1017.5
20260906082530 31 351 4.8 12.9 0.00 0.00 0.00 34 1017.6
20260906082034 31 351 6.4 16.1 0.00 0.00 0.00 34 1017.5
20260906081558 31 350 9.7 16.1 0.00 0.00 0.00 36 1017.6
20260906081035 31 350 6.4 14.5 0.00 0.00 0.00 33 1017.6
20260906080533 31 350 8.0 14.5 0.00 0.00 0.00 34 1017.6
20260906080100 31 351 4.8 14.5 0.00 0.00 0.00 37 1017.6
20260906075534 30 350 6.4 14.5 0.00 0.00 0.00 37 1017.7
20260906075033 30 351 6.4 14.5 0.00 0.00 0.00 33 1017.6
20260906074554 30 350 4.8 14.5 0.00 0.00 0.00 35 1017.6
20260906074030 30 350 4.8 12.9 0.00 0.00 0.00 35 1017.5
20260906073531 30 350 4.8 12.9 0.00 0.00 0.00 34 1017.5
20260906073052 30 351 6.4 9.7 0.00 0.00 0.00 33 1017.4
20260906072534 30 351 6.4 9.7 0.00 0.00 0.00 33 1017.5
20260906072035 30 350 3.2 9.7 0.00 0.00 0.00 32 1017.5
20260906071600 30 350 4.8 6.4 0.00 0.00 0.00 31 1017.4
20260906071033 30 351 1.6 6.4 0.00 0.00 0.00 32 1017.4
20260906070535 30 0 1.6 6.4 0.00 0.00 0.00 32 1017.3
20260906070100 30 350 1.6 6.4 0.00 0.00 0.00 32 1017.3
20260906065534 30 350 1.6 8.0 0.00 0.00 0.00 31 1017.2
20260906065033 29 0 3.2 8.0 0.00 0.00 0.00 31 1017.1
20260906064553 29 350 3.2 8.0 0.00 0.00 0.00 32 1017.1
20260906064034 29 350 1.6 3.2 0.00 0.00 0.00 32 1017.0
20260906063533 29 0 0.0 4.8 0.00 0.00 0.00 34 1016.9
20260906063101 28 0 1.6 4.8 0.00 0.00 0.00 34 1016.9
20260906062535 29 350 1.6 3.2 0.00 0.00 0.00 33 1016.8
20260906062033 29 352 0.0 1.6 0.00 0.00 0.00 33 1016.7
20260906061603 29 0 0.0 1.6 0.00 0.00 0.00 33 1016.8
20260906061035 28 0 0.0 0.0 0.00 0.00 0.00 34 1016.6
20260906060533 28 0 0.0 0.0 0.00 0.00 0.00 33 1016.7
20260906060135 28 0 0.0 0.0 0.00 0.00 0.00 33 1016.6
20260906055535 27 0 0.0 0.0 0.00 0.00 0.00 35 1016.6
20260906055033 27 0 0.0 0.0 0.00 0.00 0.00 36 1016.5
20260906054607 26 0 0.0 0.0 0.00 0.00 0.00 35 1016.5
20260906054031 26 0 0.0 0.0 0.00 0.00 0.00 36 1016.6
20260906053532 25 0 0.0 1.6 0.00 0.00 0.00 39 1016.6
20260906053100 24 0 0.0 1.6 0.00 0.00 0.00 42 1016.6
20260906052539 23 0 0.0 3.2 0.00 0.00 0.00 44 1016.6
20260906052035 22 0 0.0 4.8 0.00 0.00 0.00 47 1016.6
20260906051600 21 352 1.6 4.8 0.00 0.00 0.00 49 1016.5
20260906051035 21 352 0.0 0.0 0.00 0.00 0.00 51 1016.5
20260906050535 21 0 0.0 1.6 0.00 0.00 0.00 52 1016.5
20260906050059 20 0 0.0 1.6 0.00 0.00 0.00 52 1016.5
20260906045535 20 0 0.0 3.2 0.00 0.00 0.00 50 1016.6
20260906045035 20 0 0.0 3.2 0.00 0.00 0.00 52 1016.5
20260906044601 20 352 1.6 3.2 0.00 0.00 0.00 51 1016.5
20260906044035 20 0 0.0 3.2 0.00 0.00 0.00 52 1016.5
20260906043534 20 0 0.0 3.2 0.00 0.00 0.00 52 1016.5
20260906043059 20 352 0.0 0.0 0.00 0.00 0.00 51 1016.3
20260906042535 20 0 0.0 0.0 0.00 0.00 0.00 50 1016.3
20260906042034 20 0 0.0 0.0 0.00 0.00 0.00 51 1016.2
20260906041600 20 0 0.0 4.8 0.00 0.00 0.00 51 1016.2
20260906041034 20 0 0.0 4.8 0.00 0.00 0.00 50 1016.2
20260906040535 20 352 1.6 3.2 0.00 0.00 0.00 50 1016.1
20260906040057 20 0 0.0 3.2 0.00 0.00 0.00 50 1016.1
20260906035536 20 0 0.0 1.6 0.00 0.00 0.00 50 1016.1
20260906035035 20 0 0.0 9.7 0.00 0.00 0.00 48 1016.1
20260906034607 21 0 0.0 9.7 0.00 0.00 0.00 48 1016.0
20260906034034 21 333 3.2 9.7 0.00 0.00 0.00 47 1016.0
20260906033534 21 355 1.6 4.8 0.00 0.00 0.00 48 1015.9
20260906033102 21 301 1.6 4.8 0.00 0.00 0.00 47 1015.9
20260906032535 21 301 1.6 4.8 0.00 0.00 0.00 48 1015.9
20260906032034 21 301 1.6 6.4 0.00 0.00 0.00 49 1015.9
20260906031558 20 301 1.6 9.7 0.00 0.00 0.00 50 1015.8
20260906031035 20 213 4.8 9.7 0.00 0.00 0.00 51 1015.9
20260906030535 20 317 1.6 6.4 0.00 0.00 0.00 52 1015.8
20260906030106 20 19 1.6 4.8 0.00 0.00 0.00 53 1015.7
20260906025537 20 0 0.0 0.0 0.00 0.00 0.00 55 1015.8
20260906025038 20 0 0.0 0.0 0.00 0.00 0.00 55 1015.6
20260906024618 20 0 0.0 0.0 0.00 0.00 0.00 55 1015.6
20260906024035 20 0 0.0 3.2 0.00 0.00 0.00 56 1015.6
20260906023535 20 0 0.0 3.2 0.00 0.00 0.00 55 1015.6
20260906023059 21 0 0.0 3.2 0.00 0.00 0.00 55 1015.6
20260906022534 21 24 0.0 3.2 0.00 0.00 0.00 55 1015.6
20260906022034 21 0 0.0 0.0 0.00 0.00 0.00 56 1015.5
20260906021601 21 0 0.0 6.4 0.00 0.00 0.00 55 1015.6
20260906021034 21 0 0.0 6.4 0.00 0.00 0.00 55 1015.5
20260906020535 21 338 4.8 6.4 0.00 0.00 0.00 54 1015.6
20260906020114 21 352 0.0 3.2 0.00 0.00 0.00 54 1015.5
20260906015535 21 0 1.6 6.4 0.00 0.00 0.00 54 1015.5
20260906015035 21 0 0.0 8.0 0.00 0.00 0.00 54 1015.5
20260906014604 21 337 3.2 8.0 0.00 0.00 0.00 54 1015.6
20260906014034 21 352 3.2 11.3 0.00 0.00 0.00 54 1015.7
20260906013534 21 342 6.4 11.3 0.00 0.00 0.00 55 1015.7
20260906013100 20 319 3.2 6.4 0.00 0.00 0.00 57 1015.7
20260906012535 20 319 1.6 4.8 0.00 0.00 0.00 57 1015.7
20260906012035 20 319 1.6 4.8 0.00 0.00 0.00 55 1015.7
20260906011600 20 0 0.0 6.4 0.00 0.00 0.00 56 1015.8
20260906011035 20 319 3.2 6.4 0.00 0.00 0.00 57 1015.8
20260906010534 20 351 1.6 4.8 0.00 0.00 0.00 60 1015.9
20260906010140 20 351 0.0 3.2 0.00 0.00 0.00 59 1015.9
20260906005534 20 0 0.0 3.2 0.00 0.00 0.00 59 1015.9
20260906005038 20 351 1.6 3.2 0.00 0.00 0.00 58 1015.8
20260906004615 20 351 1.6 4.8 0.00 0.00 0.00 58 1015.9
20260906004035 20 0 1.6 4.8 0.00 0.00 0.00 58 1015.9
20260906003535 20 351 3.2 4.8 0.00 0.00 0.00 55 1015.9
20260906003103 20 351 0.0 6.4 0.00 0.00 0.00 51 1015.9
20260906002535 21 0 0.0 6.4 0.00 0.00 0.00 50 1016.0
20260906002035 21 351 1.6 6.4 0.00 0.00 0.00 54 1015.9
20260906001605 21 329 1.6 3.2 0.00 0.00 0.00 55 1015.8
20260906001034 21 329 1.6 3.2 0.00 0.00 0.00 54 1015.9
20260906000534 21 329 0.0 3.2 0.00 0.00 0.00 51 1015.8
20260905235536 21 329 0.0 3.2 0.00 0.00 0.00 48 1015.8
20260905235034 21 329 1.6 3.2 0.00 0.00 0.00 46 1015.9
20260905234555 22 329 0.0 3.2 0.00 0.00 0.00 46 1016.0
20260905234036 22 329 0.0 6.4 0.00 0.00 0.00 45 1016.0
20260905233534 22 0 1.6 6.4 0.00 0.00 0.00 45 1016.1
20260905233101 21 24 1.6 6.4 0.00 0.00 0.00 46 1016.1
20260905232534 22 333 1.6 6.4 0.00 0.00 0.00 47 1016.2
20260905232034 22 333 1.6 6.4 0.00 0.00 0.00 46 1016.2
20260905231612 22 334 3.2 6.4 0.00 0.00 0.00 46 1016.2
20260905231033 21 327 3.2 6.4 0.00 0.00 0.00 46 1016.3
20260905230533 22 319 3.2 6.4 0.00 0.00 0.00 46 1016.4
20260905225535 22 0 0.0 8.0 0.00 0.00 0.00 44 1016.4
20260905225033 22 351 0.0 9.7 0.00 0.00 0.00 43 1016.5
20260905224553 22 355 4.8 9.7 0.00 0.00 0.00 43 1016.5
20260905224033 22 329 4.8 9.7 0.00 0.00 0.00 44 1016.5
20260905223534 21 14 1.6 4.8 0.00 0.00 0.00 47 1016.6
20260905223102 21 314 0.0 3.2 0.00 0.00 0.00 47 1016.7
20260905222533 22 0 0.0 1.6 0.00 0.00 0.00 46 1016.6
20260905222033 22 0 0.0 4.8 0.00 0.00 0.00 46 1016.7
20260905221603 22 0 0.0 8.0 0.00 0.00 0.00 44 1016.6
20260905221034 22 0 3.2 8.0 0.00 0.00 0.00 45 1016.6
20260905220535 21 344 3.2 6.4 0.00 0.00 0.00 47 1016.6
20260905220100 22 344 1.6 4.8 0.00 0.00 0.00 48 1016.5
20260905215533 22 0 0.0 0.0 0.00 0.00 0.00 48 1016.6
20260905215032 22 0 0.0 0.0 0.00 0.00 0.00 47 1016.6
20260905214556 22 0 0.0 0.0 0.00 0.00 0.00 46 1016.5
20260905214033 22 0 0.0 1.6 0.00 0.00 0.00 46 1016.5
20260905213533 23 0 0.0 3.2 0.00 0.00 0.00 46 1016.6
20260905213104 23 0 0.0 3.2 0.00 0.00 0.00 46 1016.6
20260905212535 23 0 0.0 4.8 0.00 0.00 0.00 44 1016.6
20260905212031 23 344 1.6 4.8 0.00 0.00 0.00 44 1016.6
20260905211607 23 344 3.2 4.8 0.00 0.00 0.00 44 1016.6
20260905211033 23 344 1.6 6.4 0.00 0.00 0.00 45 1016.6
20260905210532 23 344 1.6 6.4 0.00 0.00 0.00 45 1016.7
20260905210120 23 340 3.2 6.4 0.00 0.00 0.00 45 1016.7
20260905205533 23 340 3.2 6.4 0.00 0.00 0.00 45 1016.7
20260905205033 23 352 1.6 6.4 0.00 0.00 0.00 46 1016.6
20260905204604 23 338 1.6 3.2 0.00 0.00 0.00 46 1016.7
20260905204031 23 352 0.0 4.8 0.00 0.00 0.00 45 1016.7
20260905203533 23 0 0.0 4.8 0.00 0.00 0.00 45 1016.6
20260905203055 23 352 1.6 4.8 0.00 0.00 0.00 45 1016.6
20260905202533 23 0 1.6 9.7 0.00 0.00 0.00 45 1016.6
20260905202032 23 351 1.6 9.7 0.00 0.00 0.00 45 1016.5
20260905201605 24 331 6.4 9.7 0.00 0.00 0.00 44 1016.5
20260905201034 24 352 1.6 4.8 0.00 0.00 0.00 44 1016.6
20260905200534 25 0 0.0 4.8 0.00 0.00 0.00 43 1016.6
20260905200119 25 355 1.6 4.8 0.00 0.00 0.00 43 1016.5
20260905195534 25 355 0.0 3.2 0.00 0.00 0.00 43 1016.5
20260905195035 25 355 0.0 4.8 0.00 0.00 0.00 43 1016.5
20260905194600 25 355 1.6 9.7 0.00 0.00 0.00 42 1016.5
20260905194034 25 264 3.2 14.5 0.00 0.00 0.00 42 1016.5
20260905193534 25 331 6.4 14.5 0.00 0.00 0.00 43 1016.5
20260905193101 25 340 8.0 14.5 0.00 0.00 0.00 44 1016.6
20260905192534 25 341 9.7 14.5 0.00 0.00 0.00 45 1016.6
20260905192037 25 337 8.0 12.9 0.00 0.00 0.00 47 1016.7
20260905191600 25 337 4.8 9.7 0.00 0.00 0.00 47 1016.8
20260905191034 25 17 4.8 8.0 0.00 0.00 0.00 47 1016.9
20260905190535 25 355 4.8 9.7 0.00 0.00 0.00 47 1016.8
20260905190056 25 352 4.8 9.7 0.00 0.00 0.00 47 1016.8
20260905185534 25 352 3.2 9.7 0.00 0.00 0.00 46 1016.8
20260905185034 25 352 4.8 9.7 0.00 0.00 0.00 46 1016.7
20260905184607 25 327 4.8 9.7 0.00 0.00 0.00 47 1016.5
20260905184039 25 336 4.8 8.0 0.00 0.00 0.00 47 1016.6
20260905183534 25 339 4.8 6.4 0.00 0.00 0.00 47 1016.6
20260905183103 26 345 3.2 6.4 0.00 0.00 0.00 47 1016.6
20260905182533 26 345 0.0 8.0 0.00 0.00 0.00 46 1016.6
20260905182037 26 0 0.0 8.0 0.00 0.00 0.00 46 1016.5
20260905181559 26 345 3.2 8.0 0.00 0.00 0.00 47 1016.4
20260905181033 26 347 3.2 8.0 0.00 0.00 0.00 46 1016.4
20260905180532 26 344 1.6 9.7 0.00 0.00 0.00 46 1016.3
20260905180057 26 340 6.4 12.9 0.00 0.00 0.00 45 1016.2
20260905175534 26 15 6.4 12.9 0.00 0.00 0.00 44 1016.4
20260905175037 26 332 8.0 16.1 0.00 0.00 0.00 44 1016.3
20260905174609 27 338 8.0 16.1 0.00 0.00 0.00 44 1016.3
20260905174037 27 318 8.0 16.1 0.00 0.00 0.00 44 1016.3
20260905173534 27 336 8.0 14.5 0.00 0.00 0.00 44 1016.2
20260905173103 27 340 4.8 9.7 0.00 0.00 0.00 43 1016.2
20260905172536 27 334 1.6 8.0 0.00 0.00 0.00 43 1016.2
20260905172036 27 352 3.2 8.0 0.00 0.00 0.00 42 1016.1
20260905171559 27 352 4.8 8.0 0.00 0.00 0.00 42 1016.0
20260905171034 27 45 3.2 12.9 0.00 0.00 0.00 41 1015.9
20260905170534 27 352 4.8 14.5 0.00 0.00 0.00 40 1015.9
20260905170104 28 330 4.8 17.7 0.00 0.00 0.00 40 1015.9
20260905165534 28 323 4.8 19.3 0.00 0.00 0.00 39 1015.8
20260905165035 28 16 11.3 19.3 0.00 0.00 0.00 38 1015.8
20260905164602 28 342 9.7 19.3 0.00 0.00 0.00 38 1015.9
20260905164034 28 309 9.7 19.3 0.00 0.00 0.00 37 1015.8
20260905163534 28 330 12.9 22.5 0.00 0.00 0.00 37 1015.8
20260905163102 29 331 12.9 22.5 0.00 0.00 0.00 36 1015.9
20260905162533 29 338 12.9 24.1 0.00 0.00 0.00 36 1015.8
20260905162034 29 304 12.9 24.1 0.00 0.00 0.00 35 1015.9
20260905161558 30 337 14.5 25.7 0.00 0.00 0.00 35 1015.9
20260905161035 30 338 16.1 32.2 0.00 0.00 0.00 35 1015.9
20260905160534 30 340 16.1 32.2 0.00 0.00 0.00 34 1015.9
20260905160057 30 322 16.1 29.0 0.00 0.00 0.00 34 1015.9
20260905155534 30 330 19.3 27.4 0.00 0.00 0.00 34 1015.9
20260905155033 30 343 11.3 27.4 0.00 0.00 0.00 35 1016.0
20260905154606 30 341 17.7 27.4 0.00 0.00 0.00 35 1015.9
20260905154034 30 349 17.7 27.4 0.00 0.00 0.00 35 1015.9
20260905153537 30 329 16.1 22.5 0.00 0.00 0.00 34 1015.9
20260905153102 31 342 11.3 30.6 0.00 0.00 0.00 34 1015.8
20260905152535 31 355 14.5 30.6 0.00 0.00 0.00 34 1015.9
20260905152034 31 340 17.7 30.6 0.00 0.00 0.00 34 1015.9
20260905151636 31 335 16.1 25.7 0.00 0.00 0.00 34 1015.9
20260905151034 31 329 12.9 30.6 0.00 0.00 0.00 33 1015.9
20260905150534 31 30 16.1 30.6 0.00 0.00 0.00 33 1015.8
20260905150100 31 328 16.1 30.6 0.00 0.00 0.00 33 1015.8
20260905145535 31 321 16.1 30.6 0.00 0.00 0.00 33 1015.8
20260905145035 31 338 14.5 29.0 0.00 0.00 0.00 33 1015.7
20260905144600 31 343 17.7 35.4 0.00 0.00 0.00 33 1015.6
20260905144034 31 333 22.5 35.4 0.00 0.00 0.00 33 1015.7
20260905143534 31 352 12.9 33.8 0.00 0.00 0.00 33 1015.7
20260905143101 31 338 16.1 33.8 0.00 0.00 0.00 34 1015.6
20260905142535 31 329 20.9 40.2 0.00 0.00 0.00 33 1015.6
20260905142034 31 341 22.5 40.2 0.00 0.00 0.00 33 1015.5
20260905141558 31 343 22.5 37.0 0.00 0.00 0.00 32 1015.6
20260905141034 31 331 20.9 35.4 0.00 0.00 0.00 31 1015.6
20260905140533 31 340 20.9 35.4 0.00 0.00 0.00 31 1015.6
20260905140100 32 307 20.9 33.8 0.00 0.00 0.00 31 1015.6
20260905135624 32 340 20.9 33.8 0.00 0.00 0.00 30 1015.7
20260905135035 32 331 19.3 33.8 0.00 0.00 0.00 31 1015.7
20260905134556 32 334 17.7 32.2 0.00 0.00 0.00 31 1015.7
20260905134040 32 344 19.3 35.4 0.00 0.00 0.00 31 1015.7
20260905133533 32 317 17.7 35.4 0.00 0.00 0.00 30 1015.8
20260905133101 32 332 20.9 37.0 0.00 0.00 0.00 31 1015.8
20260905132534 32 338 17.7 37.0 0.00 0.00 0.00 30 1015.8
20260905132034 32 340 19.3 38.6 0.00 0.00 0.00 30 1015.8
20260905131608 32 335 22.5 38.6 0.00 0.00 0.00 30 1015.9
20260905131033 32 338 27.4 38.6 0.00 0.00 0.00 30 1016.0
20260905130535 32 304 19.3 35.4 0.00 0.00 0.00 30 1015.9
20260905130059 32 335 16.1 35.4 0.00 0.00 0.00 30 1016.0
20260905125534 32 355 19.3 32.2 0.00 0.00 0.00 29 1016.1
20260905125035 32 342 20.9 32.2 0.00 0.00 0.00 29 1016.0
20260905124558 32 324 20.9 32.2 0.00 0.00 0.00 29 1016.0
20260905124037 32 338 20.9 30.6 0.00 0.00 0.00 30 1016.0
20260905123535 32 337 22.5 30.6 0.00 0.00 0.00 30 1016.0
20260905123114 33 355 14.5 30.6 0.00 0.00 0.00 29 1016.0
20260905122535 32 352 19.3 27.4 0.00 0.00 0.00 29 1016.1
20260905122038 33 360 17.7 38.6 0.00 0.00 0.00 29 1016.2
20260905121600 32 308 24.1 38.6 0.00 0.00 0.00 29 1016.1
20260905121037 32 15 17.7 30.6 0.00 0.00 0.00 29 1016.2
20260905120536 32 355 19.3 32.2 0.00 0.00 0.00 29 1016.2
20260905120101 32 333 16.1 33.8 0.00 0.00 0.00 29 1016.2
20260905115533 32 331 16.1 35.4 0.00 0.00 0.00 28 1016.2
20260905115039 32 246 22.5 35.4 0.00 0.00 0.00 27 1016.3
20260905114558 32 321 16.1 37.0 0.00 0.00 0.00 29 1016.2
20260905114036 32 344 20.9 37.0 0.00 0.00 0.00 28 1016.3
20260905113535 32 319 14.5 37.0 0.00 0.00 0.00 29 1016.3
20260905113112 32 342 17.7 37.0 0.00 0.00 0.00 29 1016.2
20260905112535 32 335 17.7 40.2 0.00 0.00 0.00 30 1016.3
20260905112035 32 352 19.3 40.2 0.00 0.00 0.00 28 1016.3
20260905111605 32 352 17.7 30.6 0.00 0.00 0.00 30 1016.3
20260905111036 32 352 19.3 32.2 0.00 0.00 0.00 30 1016.3
20260905110539 32 315 16.1 33.8 0.00 0.00 0.00 30 1016.4
20260905110057 32 290 16.1 33.8 0.00 0.00 0.00 31 1016.5
20260905105536 32 355 19.3 35.4 0.00 0.00 0.00 31 1016.4
20260905105037 32 355 14.5 35.4 0.00 0.00 0.00 31 1016.5
20260905104556 32 290 19.3 35.4 0.00 0.00 0.00 31 1016.5
20260905104035 32 352 16.1 40.2 0.00 0.00 0.00 31 1016.4
20260905103536 32 338 20.9 40.2 0.00 0.00 0.00 31 1016.3
20260905103105 32 352 25.7 40.2 0.00 0.00 0.00 31 1016.4
20260905102537 32 339 19.3 37.0 0.00 0.00 0.00 30 1016.4
20260905102035 32 355 16.1 41.8 0.00 0.00 0.00 31 1016.3
20260905101556 32 355 24.1 41.8 0.00 0.00 0.00 30 1016.4
20260905101033 32 352 16.1 33.8 0.00 0.00 0.00 30 1016.3
20260905100535 32 344 22.5 33.8 0.00 0.00 0.00 30 1016.5
20260905100109 32 325 17.7 37.0 0.00 0.00 0.00 30 1016.6